Location: Kershaw
(34.5481°N, 80.5823°W)
Time: 20:57:38
(UTC+00:00)

Vanguard 2 Rocket - Pass Details

Date: 09 October 2022
Orbit: 555 x 3321 km, 32.9° (Epoch: 28 November)

Event Time Altitude Azimuth Distance (km) Brightness Sun altitude
Rises 22:46:44 0° 206° (SSW) 6,865 11.9 0.9°
Reaches altitude 10° 22:51:57 10° 197° (SSW) 6,075 11.5 -0.1°
Maximum altitude 23:08:16 33° 142° (SE) 4,588 10.2 -3.5°
Drops below altitude 10° 23:23:06 10° 87° (E) 5,599 10.2 -6.5°
Enters shadow 23:24:20 - 85° (E) 5,779 10.3 -6.8°
